Omak, WA

5:12 AM PDT on August 17, 2017 (GMT -0700)
Omak

Weather History for KOMK - May, 2009

Change the Weather History Date:

Wednesday, May 13, 2009

  Actual Average Record
Temperature  
Mean Temperature 43 °F 57 °F  
Max Temperature 58 °F 71 °F 95 °F (1993)
Min Temperature 28 °F 43 °F 28 °F (2009)
Degree Days  
Heating Degree Days 22 8  
Month to date heating degree days 182 129  
Since 1 July heating degree days 6670 6168  
Cooling Degree Days 0 1  
Month to date cooling degree days 0 3  
Year to date cooling degree days 0 4  
Moisture  
Dew Point 29 °F    
Average Humidity 60    
Maximum Humidity 89    
Minimum Humidity 30    
Precipitation  
Precipitation 0.06 in 0.04 in 0.44 in (1945)
Month to date precipitation 1.15 0.57  
Year to date precipitation 3.41 6.10  
Sea Level Pressure  
Sea Level Pressure 29.99 in    
Wind  
Wind Speed 9 mph (South)    
Max Wind Speed 25 mph    
Max Gust Speed 32 mph    
Visibility 10 miles    
Events Rain    
T = Trace of Precipitation, MM = Missing Value Source: NWS Daily Summary

Daily Weather History Graph

Daily Weather History Graph

Search for Another Location

Airport or City:

Trip Planner

Search our weather history database for the weather conditions in past years. The results will help you decide how hot, cold, wet, or windy it might be!

Date:

Astronomy

May. 13, 2009 Rise Set
Actual Time 5:19 AM PDT 8:29 PM PDT
Civil Twilight 4:42 AM PDT 9:07 PM PDT
Nautical Twilight 3:54 AM PDT 9:56 PM PDT
Astronomical Twilight 2:53 AM PDT 10:57 PM PDT
Moon 12:21 AM PDT (5/13) 8:24 AM PDT (5/13)
Length of Visible Light 16h 24m
Length of Day
15h 09m
Waning Gibbous, 81% of the Moon is Illuminated
May 13
Waning Gibbous
May 17
Last Quarter
May 24
New
May 30
First Quarter
Jun 7
Full

Hourly Weather History & Observations

Time (PDT) Temp. Windchill Dew Point Humidity Pressure Visibility Wind Dir Wind Speed Gust Speed Precip Events Conditions
12:53 AM 37.0 °F - 24.1 °F 59% 30.05 in 10.0 mi Calm Calm - N/A   Clear
1:53 AM 33.1 °F - 25.0 °F 72% 30.07 in 10.0 mi Calm Calm - N/A   Clear
2:53 AM 32.0 °F 28.7 °F 24.1 °F 73% 30.08 in 10.0 mi WNW 3.5 mph - N/A   Clear
3:53 AM 32.0 °F 26.4 °F 24.1 °F 73% 30.09 in 10.0 mi NW 5.8 mph - N/A   Clear
4:53 AM 32.0 °F 28.7 °F 24.1 °F 73% 30.11 in 10.0 mi WNW 3.5 mph - N/A   Clear
5:53 AM 32.0 °F - 25.0 °F 75% 30.11 in 10.0 mi Calm Calm - N/A   Clear
6:53 AM 39.9 °F - 28.0 °F 63% 30.12 in 10.0 mi Calm Calm - N/A   Clear
7:53 AM 44.1 °F 42.5 °F 27.0 °F 51% 30.12 in 10.0 mi South 3.5 mph - N/A   Clear
8:53 AM 46.9 °F - 28.0 °F 48% 30.11 in 10.0 mi Variable 3.5 mph - N/A   Clear
9:53 AM 51.1 °F - 26.1 °F 38% 30.11 in 10.0 mi SSW 5.8 mph - N/A   Clear
10:53 AM 55.0 °F - 27.0 °F 34% 30.08 in 10.0 mi SSE 13.8 mph - N/A   Clear
11:53 AM 55.0 °F - 25.0 °F 31% 30.06 in 10.0 mi SE 19.6 mph 24.2 mph N/A   Clear
12:53 PM 55.9 °F - 25.0 °F 30% 30.04 in 10.0 mi SSE 19.6 mph 25.3 mph N/A   Clear
1:53 PM 55.9 °F - 27.0 °F 33% 30.01 in 10.0 mi SSE 17.3 mph - N/A   Clear
2:53 PM 55.9 °F - 28.0 °F 34% 29.99 in 10.0 mi SSE 18.4 mph 24.2 mph N/A   Overcast
3:53 PM 55.9 °F - 27.0 °F 33% 29.95 in 10.0 mi SSE 13.8 mph 17.3 mph N/A   Mostly Cloudy
4:53 PM 55.0 °F - 26.1 °F 33% 29.92 in 10.0 mi SW 13.8 mph 26.5 mph 0.00 in Rain Light Rain
5:53 PM 53.1 °F - 27.0 °F 37% 29.92 in 10.0 mi South 19.6 mph 28.8 mph 0.00 in   Scattered Clouds
6:53 PM 51.1 °F - 28.9 °F 43% 29.90 in 10.0 mi South 16.1 mph 21.9 mph N/A   Overcast
7:53 PM 50.0 °F - 30.0 °F 46% 29.88 in 10.0 mi South 11.5 mph 21.9 mph N/A   Overcast
8:53 PM 48.9 °F - 32.0 °F 52% 29.85 in 10.0 mi South 11.5 mph - N/A   Overcast
9:53 PM 48.0 °F - 36.0 °F 63% 29.83 in 10.0 mi SSE 9.2 mph - 0.00 in Rain Light Rain
10:29 PM 46.4 °F 41.5 °F 41.0 °F 81% 29.81 in 7.0 mi SSE 10.4 mph - 0.01 in Rain Light Rain
10:53 PM 45.0 °F 40.6 °F 41.0 °F 86% 29.81 in 8.0 mi SSE 8.1 mph - 0.02 in Rain Light Rain
11:53 PM 44.1 °F 41.5 °F 41.0 °F 89% 29.79 in 10.0 mi SW 4.6 mph - 0.03 in   Overcast